weather.gov     
National Weather Service

Regional Weather Roundup
NWS Homepage
This page is being discontinued on March 12, 2014.
The same data is available at this site. Please update your bookmarks.
Thank you, and we apologize for the inconvenience.
Please send an email to SR-SRH.Webmaster@noaa.gov with any concerns.


Current Version
Previous Version:    01  02  03  04  05  06  07  08  09  10  11  12  13  14  15  16  17  18  19  20  21  22  23  24  25  26  
[Printable]
686
ASUS42 KFFC 201803
RWRGA
WEATHER ROUNDUP FOR GEORGIA
NATIONAL WEATHER SERVICE PEACHTREE CITY GA
200 PM EDT WED AUG 20 2014

NOTE: "FAIR" INDICATES FEW OR NO CLOUDS BELOW 12,000 FEET WITH NO
SIGNIFICANT WEATHER AND/OR OBSTRUCTIONS TO VISIBILITY.

* = USE WITH CAUTION. THE STATIONS MARKED WITH AN ASTERISK MAY NOT
REPORT WEATHER SUCH AS PRECIPITATION, FOG, OR THUNDER AND ARE NOT
QUALITY CONTROLLED BY NWS.

THE REMARK "TC" DENOTES TEMPERATURE READING IN DEGREES CELSIUS.

GAZ001>058-201900-
NORTH GEORGIA

CITY           SKY/WX    TMP DP  RH WIND       PRES   REMARKS
ATLANTA        PTSUNNY   84  74  71 SW10      30.07S HX  91
6HR MIN TEMP:  73; 6HR MAX TEMP:  89;

ATHENS         PTSUNNY   94  71  47 N7        30.04F HX 101
6HR MIN TEMP:  72; 6HR MAX TEMP:  94;

CHAMBLEE       MOSUNNY   90  73  57 W7        30.06F HX  98
6HR MIN TEMP:  72; 6HR MAX TEMP:  91;

PEACHTREE CITY TSTM      82  71  69 N9G22     30.08R
6HR MIN TEMP:  72; 6HR MAX TEMP:  90; 6HR PCP: TRACE;

ROME           MOSUNNY   92  75  57 W6        30.02F HX 103
6HR MIN TEMP:  72; 6HR MAX TEMP:  92;

WEST ATLANTA   PTSUNNY   89  74  60 W9        30.06S HX  98
6HR MIN TEMP:  72; 6HR MAX TEMP:  90;

GAINESVILLE    MOSUNNY   88  72  58 W6        30.09F HX  94
6HR MIN TEMP:  72; 6HR MAX TEMP:  88;

CARTERSVILLE   PTSUNNY   88  73  61 VRB3      30.06S HX  95
6HR MIN TEMP:  72; 6HR MAX TEMP:  89;



CITY           SKY/WX    TMP DP  RH WIND       PRES   REMARKS
DALTON*        PTSUNNY   81  70  69 S5        30.05S THUNDER
MARIETTA       PTSUNNY   89  75  63 W9        30.07F HX 100
KENNESAW*      MOSUNNY   88  73  62 N8        30.08F HX  96
$$

GAZ059>098-102>109-201900-
CENTRAL GEORGIA

CITY           SKY/WX    TMP DP  RH WIND       PRES   REMARKS
AUGUSTA-BUSH   MOSUNNY   94  68  42 W10       30.00F HX  98
6HR MIN TEMP:  74; 6HR MAX TEMP:  94;

AUGUSTA-DANIEL SUNNY     92  68  45 W5        30.03S HX  96
6HR MIN TEMP:  76; 6HR MAX TEMP:  94;

COLUMBUS       MOSUNNY   90  73  57 N7        30.07S HX  98
6HR MIN TEMP:  70; 6HR MAX TEMP:  91;

MACON          MOSUNNY   94  70  45 VRB7      30.03F HX 100
6HR MIN TEMP:  71; 6HR MAX TEMP:  94;

ROBINS AFB     SUNNY     95  70  44 VRB5      30.03F HX 101


CITY           SKY/WX    TMP DP  RH WIND       PRES   REMARKS
LAGRANGE*      MOSUNNY   94  78  58 W8        30.07F HX 109
SYLVANIA*      MOSUNNY   92  76  58 NW7       30.03S HX 105
MILLEDGEVILLE* MOSUNNY   72  54  53 W12G21    30.04S
$$

GAZ099>101-110>166-201900-
SOUTH GEORGIA

CITY           SKY/WX    TMP DP  RH WIND       PRES   REMARKS
SAVANNAH       MOSUNNY   93  72  50 W12G20    30.01F HX 101
6HR MIN TEMP:  74; 6HR MAX TEMP:  93;

VALDOSTA       MOSUNNY   91  71  51 CALM      30.07F HX  97
6HR MIN TEMP:  74; 6HR MAX TEMP:  93;

ALMA           MOSUNNY   91  73  55 W9        30.05S HX  99
6HR MIN TEMP:  72; 6HR MAX TEMP:  92;

ST SIMONS      MOSUNNY   92  71  50 W7        30.03F HX  98
6HR MIN TEMP:  76; 6HR MAX TEMP:  92;

FT STEWART     MOSUNNY   92  73  53 W8        30.01F HX 101
ALBANY         MOSUNNY   91  72  53 NW10      30.07F HX  98
HUNTER AFB     MOSUNNY   92  74  55 W12       30.00S HX 102
MOODY AFB      PTSUNNY   90  73  57 NW8       30.06F HX  98
BRUNSWICK      MOSUNNY   91  70  49 W6        30.04S HX  97


CITY           SKY/WX    TMP DP  RH WIND       PRES   REMARKS
BAINBRIDGE*    SUNNY     95  77  55 NW9       30.07F HX 109
MOULTRIE*      MOSUNNY   90  73  58 W3        30.08S HX  98
VIDALIA*         N/A     91  73  55 NW7       30.04S HX 100
WAYCROSS*      SUNNY     95  77  56 W6        30.05S HX 110
DOUGLAS*       MOSUNNY   91  72  52 NW3G9     30.06F HX  98
$$




U.S. Dept. of Commerce
NOAA National Weather Service
1325 East West Highway
Silver Spring, MD 20910
E-mail: w-nws.webmaster@noaa.gov
Page last modified: May 16, 2007
NATIONAL WEATHER SERVICE: for Safety, for Work, for Fun - FOR LIFE